Weather History for Nan, Thailand

Change the Weather History Date:

Friday, November 22, 2013

  Actual Average Record
Temperature  
Mean Temperature 78 °F -  
Max Temperature 90 °F 85 °F - ()
Min Temperature 67 °F 60 °F - ()
Cooling Degree Days 14    
Growing Degree Days 28 (Base 50)    
Moisture  
Dew Point 67 °F    
Average Humidity 69    
Maximum Humidity 100    
Minimum Humidity 40    
Precipitation  
Precipitation 0.00 in 0.01 in - ()
Sea Level Pressure  
Sea Level Pressure 29.91 in    
Wind  
Wind Speed 1 mph ()    
Max Wind Speed 4 mph    
Max Gust Speed -    
Visibility 5.7 miles    
Events Fog    
T = Trace of Precipitation, MM = Missing Value Source: Averaged Metar Reports

Daily Weather History Graph

Daily Weather History Graph

Search for Another Location

Airport:

Trip Planner

Search our weather history database for the weather conditions in past years. The results will help you decide how hot, cold, wet, or windy it might be!

Date:

Astronomy

Nov. 22, 2013 Rise Set
Actual Time 6:27 AM ICT 5:38 PM ICT
Civil Twilight 6:04 AM ICT 6:01 PM ICT
Nautical Twilight 5:37 AM ICT 6:28 PM ICT
Astronomical Twilight 5:11 AM ICT 6:54 PM ICT
Moon 9:33 PM ICT (11/22) 9:57 AM ICT (11/22)
Length of Visible Light 11h 56m
Length of Day
11h 10m
Waning Gibbous, 82% of the Moon is Illuminated
Nov 22
Waning Gibbous
Nov 26
Last Quarter
Dec 3
New
Dec 9
First Quarter
Dec 17
Full

Hourly Weather History & Observations

Time (ICT) Temp. Heat Index Dew Point Humidity Pressure Visibility Wind Dir Wind Speed Gust Speed Precip Events Conditions
1:00 AM 72 °F - 70 °F 92% 29.93 in 6 mi Calm Calm - -   Overcast
4:00 AM 71 °F - 70 °F 94% 29.90 in 5 mi Calm Calm - -   Mist
7:00 AM 70 °F - 69 °F 97% 29.96 in 0 mi Calm Calm - - Fog Heavy Fog
7:00 AM 68.0 °F - 68.0 °F 100% 29.98 in 4.3 mi North 1.2 mph - N/A   Mostly Cloudy
8:00 AM 73.4 °F - 69.8 °F 88% 29.98 in 3.1 mi ESE 1.2 mph - N/A   Mostly Cloudy
9:00 AM 77.0 °F - 68.0 °F 74% 30.01 in 6.2 mi NNW 2.3 mph - N/A   Scattered Clouds
10:00 AM 79 °F - 71 °F 69% 29.98 in 7 mi Calm Calm - -   Partly Cloudy
10:00 AM 80.6 °F 82.3 °F 64.4 °F 58% 29.98 in 6.2 mi NE 1.2 mph - N/A   Mostly Cloudy
11:00 AM 84.2 °F 85.0 °F 62.6 °F 48% 29.95 in 6.2 mi North 2.3 mph - N/A   Mostly Cloudy
12:00 PM 84.2 °F 84.4 °F 60.8 °F 45% 29.92 in 6.2 mi NE 3.5 mph - N/A   Mostly Cloudy
1:00 PM 86 °F - 70 °F 49% 29.87 in 7 mi Calm Calm - -   Partly Cloudy
1:00 PM 87.8 °F 87.6 °F 60.8 °F 40% 29.89 in 6.2 mi WNW 3.5 mph - N/A   Mostly Cloudy
2:00 PM 87.8 °F 87.6 °F 60.8 °F 40% 29.86 in 6.2 mi Variable 2.3 mph - N/A   Mostly Cloudy
3:00 PM 87.8 °F 87.6 °F 60.8 °F 40% 29.83 in 6.2 mi North 3.5 mph - N/A   Mostly Cloudy
4:00 PM 89 °F - 69 °F 41% 29.80 in 7 mi Calm Calm - -   Scattered Clouds
5:00 PM 84.2 °F 85.0 °F 62.6 °F 48% 29.83 in 6.2 mi NW 1.2 mph - N/A   Mostly Cloudy
6:00 PM 78.8 °F - 69.8 °F 74% 29.86 in 6.2 mi North 1.2 mph - N/A   Overcast
7:00 PM 80 °F - 72 °F 69% 29.84 in 7 mi Calm Calm - -   Scattered Clouds
7:00 PM 75.2 °F - 73.4 °F 94% 29.89 in 6.2 mi South 1.2 mph - N/A   Overcast
8:00 PM 73.4 °F - 73.4 °F 100% 29.92 in 6.2 mi North 1.2 mph - N/A   Overcast
10:00 PM 76 °F - 71 °F 79% 29.89 in 6 mi Calm Calm - -   Clear